This is the latest recevied weather packets stored in our database for station/object N2ZVN. If no packets are shown the sender has not sent any weather packets the latest 1 day(s).
| Time | Temp. | Humidity | Pressure | Rain* | Wind** | Luminosity | Snow |
|---|---|---|---|---|---|---|---|
| 1778036416 | 8.89° C | 97% | 1010.5 hPa | 0 mm | 0 m/s | 0 W/m² | - |
| 1778036112 | 8.89° C | 97% | 1010.5 hPa | 1.27 mm | 0 m/s | 0 W/m² | - |
| 1778035809 | 8.89° C | 97% | 1010.4 hPa | 0 mm | 0 m/s | 0 W/m² | - |
| 1778035506 | 8.89° C | 97% | 1010.7 hPa | 1.78 mm | 0 m/s | 0 W/m² | - |
| 1778035202 | 8.89° C | 97% | 1010.8 hPa | 1.78 mm | 0 m/s | 0 W/m² | - |
| 1778034899 | 8.89° C | 96% | 1010.8 hPa | 0 mm | 0.45 m/s, 331° | 0 W/m² | - |
| 1778034595 | 8.89° C | 97% | 1010.6 hPa | 0 mm | 0.45 m/s, 331° | 0 W/m² | - |
| 1778034293 | 8.89° C | 96% | 1010.8 hPa | 1.27 mm | 0 m/s | 0 W/m² | - |
| 1778033991 | 8.33° C | 96% | 1010.8 hPa | 1.27 mm | 0 m/s | 0 W/m² | - |
| 1778033688 | 8.33° C | 96% | 1010.6 hPa | 0 mm | 0 m/s | 0 W/m² | - |
| 1778033385 | 8.33° C | 96% | 1010.7 hPa | 0 mm | 0 m/s | 0 W/m² | - |
| 1778033083 | 8.33° C | 96% | 1010.6 hPa | 0 mm | 0 m/s | 0 W/m² | - |
| 1778032780 | 8.33° C | 96% | 1010.7 hPa | 0 mm | 0 m/s | 0 W/m² | - |
| 1778032477 | 8.33° C | 96% | 1010.6 hPa | 0 mm | 0 m/s | 0 W/m² | - |
| 1778032174 | 8.33° C | 96% | 1010.5 hPa | 0 mm | 0 m/s | 0 W/m² | - |
| 1778031871 | 8.33° C | 96% | 1010.5 hPa | 1.78 mm | 0 m/s | 0 W/m² | - |
| 1778031567 | 8.33° C | 96% | 1010.2 hPa | 1.78 mm | 0 m/s | 0 W/m² | - |
| 1778031266 | 8.33° C | 96% | 1010.5 hPa | 1.27 mm | 0 m/s | 0 W/m² | - |
| 1778030961 | 8.33° C | 96% | 1010.4 hPa | 1.27 mm | 0 m/s | 0 W/m² | - |
| 1778030658 | 8.33° C | 96% | 1010.4 hPa | 1.78 mm | 0 m/s | 0 W/m² | - |
| 1778030355 | 8.33° C | 96% | 1010.6 hPa | 3.05 mm | 0 m/s | 0 W/m² | - |
| 1778030052 | 8.33° C | 96% | 1010.6 hPa | 3.05 mm | 0 m/s | 0 W/m² | - |
| 1778029749 | 8.33° C | 96% | 1010.7 hPa | 3.05 mm | 0 m/s | 0 W/m² | - |
| 1778029448 | 8.33° C | 96% | 1010.6 hPa | 4.83 mm | 0 m/s | 0 W/m² | - |
| 1778029144 | 8.33° C | 96% | 1010.4 hPa | 4.83 mm | 0 m/s | 0 W/m² | - |
* Rain latest hour (hover to see other rain measurements)
** Current wind speed in m/s (hover to see current wind gust speed)